sat.trackr.live / text

‹ back to catalog

STARLINK-6231

NORAD 56779 · 2023-078N

PAYLOAD ACTIVE UNKNOWN

§ Identity

Operator
Country
US
Launch date
2023-05-31
Launch site
AFWTR
Launch vehicle
Mass (kg)
RCS (m²)

Purposes: comms

External: N2YO · Heavens-Above · Gunter

§ Orbital elements

Epoch: 2026-09-20T22:00:03.000096Z

Period
95.66 min
Inclination
70.0008°
Eccentricity
0.0001940
Mean motion
15.05343311 rev/d
Perigee alt
549.1 km
Apogee alt
551.8 km
Semi-major
6,928.6 km
B*
-6.8214e-4
RAAN
192.1556°
Arg perigee
260.4140°
Mean anomaly
275.1511°
Rev number
576

§ Raw data

STARLINK-62311 56779U 23078N   26263.91670139 -.00009875  00000+0 -68214-3 0  99932 56779  70.0008 192.1556 0001940 260.4140 275.1511 15.05343311  5767

JSON: /api/v1/satellites/56779 · /tle

For live sub-satellite position, see the globe view (requires WebGL).

§ Visibility from observer

Set your observer location to see the next 7 days of passes ≥ 10°. The values pass through the URL so the page stays shareable.

No JS? Fill the form by hand. The geolocation button needs JavaScript.